Flag for U.S.A. Weather past 2 weeks in Juneau, Alaska, U.S.A.

Now
38 °F

Light rain. Cloudy.


Feels Like: 35 °F
Forecast: 36 / 40 °F
Wind: 3 mph from East

Location: Juneau International Airport

Current Time: Mar 5, 2015 at 10:05:58 AM

Latest Report: Mar 5, 2015 at 8:53 AM


Visibility: 7 mi

Pressure: 29.86 "Hg

Humidity: 93%

Dew point: 36 °F

Location of JuneauLocation

Historic Weather in Juneau — Graph

°F

Juneau temperature yesterday

Maximum temperature yesterday: 39 °F (at 12:53 AM)
Minimum temperature yesterday: 38 °F (at 4:53 AM)
Average temperature yesterday: 39 °F

Past Weeks' High & Low Weather Summary

 TemperatureHumidityPressure
High47 °F (Feb 26, 12:53 PM)100% (Feb 18, 10:53 AM)30.50 "Hg (Feb 18, 10:53 AM)
Low24 °F (Feb 27, 3:53 AM)32% (Mar 3, 2:53 PM)29.81 "Hg (Feb 18, 8:53 AM)
Average37 °F86%30.29 "Hg
* Reported Feb 18 8:53 AM — Mar 5 8:53 AM, Juneau, Weather by CustomWeather, © 2015

Note: Actual official high and low records may vary slightly from our data, if they occured in-between our weather recording intervals... More about our weather records

Advertising

Juneau weather history for previous 24 hours

 ConditionsComfort  
Time TempWeatherWind HumidityBarometerVisibility
8:53 AM
Thu, Mar 5
38 °FLight rain. Cloudy.3 mph93%29.86 "Hg7 mi
7:53 AM37 °FLight rain. Mostly cloudy.3 mph96%29.86 "Hg7 mi
6:53 AM37 °FLight rain. Mostly cloudy.6 mph96%29.86 "Hg9 mi
5:53 AM38 °FLight rain. Low clouds.9 mph97%29.87 "Hg10 mi
4:53 AM38 °FLight rain. Low clouds.10 mph97%29.89 "Hg10 mi
3:53 AM39 °FLight rain. Low clouds.9 mph93%29.91 "Hg10 mi
2:53 AM39 °FLow clouds.16 mph93%29.93 "Hg10 mi
1:53 AM39 °FMostly cloudy.12 mph93%29.96 "Hg10 mi
12:53 AM39 °FMostly cloudy.10 mph93%29.97 "Hg10 mi
11:53 PM
Wed, Mar 4
39 °FLight rain. Mostly cloudy.14 mph93%29.98 "Hg10 mi
10:53 PM39 °FMostly cloudy.12 mph93%29.98 "Hg10 mi
9:53 PM39 °FMostly cloudy.13 mph93%29.99 "Hg10 mi
8:53 PM38 °FMostly cloudy.12 mph97%30.00 "Hg10 mi
7:53 PM38 °FMostly cloudy.14 mph97%30.00 "Hg10 mi
6:53 PM38 °FLight rain. Mostly cloudy.16 mph97%30.01 "Hg10 mi
5:53 PM38 °FLight rain. Mostly cloudy.16 mph93%30.02 "Hg10 mi
4:53 PM38 °FLight rain. More clouds than sun.15 mph93%30.03 "Hg10 mi
3:53 PM38 °FLight rain. More clouds than sun.18 mph90%30.04 "Hg10 mi
2:53 PM39 °FLight rain. Mostly cloudy.17 mph86%30.05 "Hg10 mi
1:53 PM39 °FLight rain. Mostly cloudy.18 mph89%30.06 "Hg10 mi
12:53 PM39 °FLight rain. Mostly cloudy.20 mph89%30.07 "Hg10 mi
11:53 AM39 °FLight rain. Mostly cloudy.16 mph86%30.09 "Hg8 mi
10:53 AM39 °FLight rain. Mostly cloudy.17 mph89%30.09 "Hg10 mi
Weather by CustomWeather, © 2015

See weather overviewHow to use our weather pages